Time,TemperatureF,DewpointF,PressureIn,WindDirection,WindDirectionDegrees,WindSpeedMPH,WindSpeedGustMPH,Humidity,HourlyPrecipIn,Conditions,Clouds,dailyrainin,SoftwareType,DateUTC
2013-03-03 00:00:00,26.7,20.5,29.64,NW,304,4.0,4.0,77,0.00,,OVC040,0.00,VWS V14.00,2013-03-03 05:00:00,
2013-03-03 00:05:00,26.7,20.5,29.65,WNW,296,8.0,12.0,77,0.00,,OVC040,0.00,VWS V14.00,2013-03-03 05:05:00,
2013-03-03 00:10:00,26.7,20.5,29.65,WNW,300,5.0,11.0,77,0.00,,OVC040,0.00,VWS V14.00,2013-03-03 05:10:00,
2013-03-03 00:15:00,26.7,20.5,29.65,NW,304,3.0,6.0,77,0.00,,OVC040,0.00,VWS V14.00,2013-03-03 05:15:00,
2013-03-03 00:20:00,26.7,20.5,29.65,NNW,338,3.0,5.0,77,0.00,,OVC040,0.00,VWS V14.00,2013-03-03 05:20:00,
2013-03-03 00:25:00,26.6,20.4,29.65,NW,306,7.0,7.0,77,0.00,,OVC040,0.00,VWS V14.00,2013-03-03 05:25:00,
2013-03-03 00:30:00,26.6,20.4,29.65,NW,310,6.0,6.0,77,0.00,,OVC040,0.00,VWS V14.00,2013-03-03 05:30:00,
2013-03-03 00:35:00,26.6,20.4,29.65,WNW,293,10.0,11.0,77,0.00,,OVC040,0.00,VWS V14.00,2013-03-03 05:35:00,
2013-03-03 00:40:00,26.6,20.4,29.65,NW,306,3.0,9.0,77,0.00,,OVC040,0.00,VWS V14.00,2013-03-03 05:40:00,
2013-03-03 00:45:00,26.4,20.2,29.65,NW,312,6.0,6.0,77,0.00,,OVC040,0.00,VWS V14.00,2013-03-03 05:45:00,
2013-03-03 00:50:00,26.4,20.2,29.65,NW,313,7.0,10.0,77,0.00,,OVC040,0.00,VWS V14.00,2013-03-03 05:50:00,
2013-03-03 00:55:00,26.4,20.2,29.65,WNW,303,6.0,11.0,77,0.00,,OVC040,0.00,VWS V14.00,2013-03-03 05:55:00,
2013-03-03 01:00:00,26.4,20.2,29.65,NW,309,5.0,12.0,77,0.00,,OVC040,0.00,VWS V14.00,2013-03-03 06:00:00,
2013-03-03 01:05:00,26.3,19.8,29.65,NW,313,12.0,12.0,76,0.00,,OVC040,0.00,VWS V14.00,2013-03-03 06:05:00,
2013-03-03 01:10:00,26.3,19.8,29.65,WNW,300,6.0,12.0,76,0.00,,OVC040,0.00,VWS V14.00,2013-03-03 06:10:00,
2013-03-03 01:15:00,26.3,19.8,29.65,NW,309,10.0,13.0,76,0.00,,OVC040,0.00,VWS V14.00,2013-03-03 06:15:00,
2013-03-03 01:20:00,26.3,19.8,29.65,NW,311,4.0,10.0,76,0.00,,OVC040,0.00,VWS V14.00,2013-03-03 06:20:00,
2013-03-03 01:25:00,26.3,19.8,29.65,North,349,4.0,4.0,76,0.00,,OVC040,0.00,VWS V14.00,2013-03-03 06:25:00,
2013-03-03 01:30:00,26.3,19.8,29.65,NW,317,5.0,7.0,76,0.00,,OVC040,0.00,VWS V14.00,2013-03-03 06:30:00,
2013-03-03 01:35:00,26.3,19.8,29.65,North,5,4.0,5.0,76,0.00,,OVC047,0.00,VWS V14.00,2013-03-03 06:35:00,
2013-03-03 01:40:00,26.3,19.8,29.65,NW,322,3.0,3.0,76,0.00,,OVC047,0.00,VWS V14.00,2013-03-03 06:40:00,
2013-03-03 01:45:00,26.3,19.8,29.65,NNW,340,1.0,4.0,76,0.00,,OVC047,0.00,VWS V14.00,2013-03-03 06:45:00,
2013-03-03 01:50:00,26.3,19.8,29.65,WNW,301,7.0,10.0,76,0.00,,OVC047,0.00,VWS V14.00,2013-03-03 06:50:00,
2013-03-03 01:55:00,26.3,19.8,29.65,NNE,32,2.0,7.0,76,0.00,,OVC047,0.00,VWS V14.00,2013-03-03 06:55:00,
2013-03-03 02:00:00,26.1,19.6,29.65,WNW,288,12.0,14.0,76,0.00,,OVC047,0.00,VWS V14.00,2013-03-03 07:00:00,
2013-03-03 02:05:00,26.1,19.3,29.65,NW,305,3.0,13.0,75,0.00,,OVC047,0.00,VWS V14.00,2013-03-03 07:05:00,
2013-03-03 02:10:00,26.0,19.2,29.65,NNW,343,7.0,13.0,75,0.00,,OVC047,0.00,VWS V14.00,2013-03-03 07:10:00,
2013-03-03 02:15:00,26.0,19.2,29.64,NW,312,5.0,6.0,75,0.00,,OVC047,0.00,VWS V14.00,2013-03-03 07:15:00,
2013-03-03 02:20:00,26.0,19.2,29.64,NNE,18,4.0,10.0,75,0.00,,OVC047,0.00,VWS V14.00,2013-03-03 07:20:00,
2013-03-03 02:25:00,26.0,19.2,29.64,WNW,303,5.0,9.0,75,0.00,,OVC047,0.00,VWS V14.00,2013-03-03 07:25:00,
2013-03-03 02:30:00,26.0,19.2,29.64,WNW,303,4.0,4.0,75,0.00,,OVC047,0.00,VWS V14.00,2013-03-03 07:30:00,
2013-03-03 02:35:00,26.0,19.2,29.64,NW,315,3.0,10.0,75,0.00,,OVC047,0.00,VWS V14.00,2013-03-03 07:35:00,
2013-03-03 02:40:00,25.8,18.7,29.64,NW,325,3.0,10.0,74,0.00,,OVC047,0.00,VWS V14.00,2013-03-03 07:40:00,
2013-03-03 02:45:00,25.8,18.7,29.63,WNW,296,4.0,4.0,74,0.00,,OVC047,0.00,VWS V14.00,2013-03-03 07:45:00,
2013-03-03 02:50:00,25.8,18.7,29.63,WNW,295,3.0,6.0,74,0.00,,OVC049,0.00,VWS V14.00,2013-03-03 07:50:00,
2013-03-03 02:55:00,25.8,18.7,29.63,WNW,299,3.0,5.0,74,0.00,,OVC049,0.00,VWS V14.00,2013-03-03 07:55:00,
2013-03-03 03:00:00,25.8,18.7,29.64,NW,318,6.0,7.0,74,0.00,,OVC049,0.00,VWS V14.00,2013-03-03 08:00:00,
2013-03-03 03:06:00,25.7,18.6,29.64,NNW,335,9.0,13.0,74,0.00,,OVC049,0.00,VWS V14.00,2013-03-03 08:06:00,
2013-03-03 03:11:00,25.7,18.6,29.64,WNW,298,5.0,7.0,74,0.00,,OVC049,0.00,VWS V14.00,2013-03-03 08:11:00,
2013-03-03 03:16:00,25.7,18.6,29.63,NW,306,5.0,9.0,74,0.00,,OVC049,0.00,VWS V14.00,2013-03-03 08:16:00,
2013-03-03 03:21:00,25.7,18.6,29.63,NW,306,6.0,8.0,74,0.00,,OVC047,0.00,VWS V14.00,2013-03-03 08:21:00,
2013-03-03 03:26:00,25.7,18.6,29.63,West,274,4.0,9.0,74,0.00,,OVC047,0.00,VWS V14.00,2013-03-03 08:26:00,
2013-03-03 03:31:00,25.6,18.5,29.62,WNW,302,12.0,12.0,74,0.00,,OVC047,0.00,VWS V14.00,2013-03-03 08:31:00,
2013-03-03 03:36:00,25.6,18.5,29.62,North,360,1.0,7.0,74,0.00,,OVC080,0.00,VWS V14.00,2013-03-03 08:36:00,
2013-03-03 03:41:00,25.6,18.5,29.62,WNW,290,2.0,5.0,74,0.00,,OVC080,0.00,VWS V14.00,2013-03-03 08:41:00,
2013-03-03 03:46:00,25.6,18.5,29.62,NNE,13,4.0,5.0,74,0.00,,OVC080,0.00,VWS V14.00,2013-03-03 08:46:00,
2013-03-03 03:51:00,25.6,18.5,29.62,WNW,300,10.0,13.0,74,0.00,,OVC049,0.00,VWS V14.00,2013-03-03 08:51:00,
2013-03-03 03:56:00,25.4,18.3,29.62,NW,325,3.0,10.0,74,0.00,,OVC049,0.00,VWS V14.00,2013-03-03 08:56:00,
2013-03-03 04:01:00,25.4,18.3,29.63,NW,306,5.0,5.0,74,0.00,,OVC049,0.00,VWS V14.00,2013-03-03 09:01:00,
2013-03-03 04:06:00,25.4,18.3,29.63,WNW,296,5.0,10.0,74,0.00,,OVC049,0.00,VWS V14.00,2013-03-03 09:06:00,
2013-03-03 04:11:00,25.4,18.3,29.63,WNW,302,6.0,10.0,74,0.00,,OVC049,0.00,VWS V14.00,2013-03-03 09:11:00,
2013-03-03 04:16:00,25.4,18.3,29.63,NW,310,5.0,6.0,74,0.00,,OVC049,0.00,VWS V14.00,2013-03-03 09:16:00,
2013-03-03 04:21:00,25.4,18.0,29.63,NW,325,8.0,8.0,73,0.00,,OVC080,0.00,VWS V14.00,2013-03-03 09:21:00,
2013-03-03 04:26:00,25.3,17.9,29.63,NW,305,10.0,10.0,73,0.00,,OVC080,0.00,VWS V14.00,2013-03-03 09:26:00,
2013-03-03 04:31:00,25.3,17.9,29.63,WNW,302,5.0,7.0,73,0.00,,OVC080,0.00,VWS V14.00,2013-03-03 09:31:00,
2013-03-03 04:36:00,25.3,17.9,29.63,NW,304,5.0,7.0,73,0.00,,OVC055,0.00,VWS V14.00,2013-03-03 09:36:00,
2013-03-03 04:41:00,25.3,17.9,29.63,North,5,5.0,5.0,73,0.00,,OVC055,0.00,VWS V14.00,2013-03-03 09:41:00,
2013-03-03 04:46:00,25.1,17.7,29.63,WNW,291,5.0,9.0,73,0.00,,OVC055,0.00,VWS V14.00,2013-03-03 09:46:00,
2013-03-03 04:51:00,25.1,17.7,29.63,NW,315,4.0,7.0,73,0.00,,OVC055,0.00,VWS V14.00,2013-03-03 09:51:00,
2013-03-03 04:56:00,25.1,17.7,29.63,WNW,300,5.0,5.0,73,0.00,,OVC055,0.00,VWS V14.00,2013-03-03 09:56:00,
2013-03-03 05:01:00,25.1,17.7,29.64,North,11,5.0,14.0,73,0.00,,OVC055,0.00,VWS V14.00,2013-03-03 10:01:00,
2013-03-03 05:06:00,25.0,17.6,29.64,NNW,327,1.0,9.0,73,0.00,,OVC055,0.00,VWS V14.00,2013-03-03 10:06:00,
2013-03-03 05:11:00,25.0,17.6,29.64,WNW,300,4.0,4.0,73,0.00,,OVC055,0.00,VWS V14.00,2013-03-03 10:11:00,
2013-03-03 05:16:00,25.0,17.6,29.64,NW,318,3.0,6.0,73,0.00,,OVC055,0.00,VWS V14.00,2013-03-03 10:16:00,
2013-03-03 05:21:00,25.0,17.6,29.64,NW,308,2.0,4.0,73,0.00,,OVC055,0.00,VWS V14.00,2013-03-03 10:21:00,
2013-03-03 05:26:00,25.0,17.6,29.64,WNW,297,4.0,6.0,73,0.00,,OVC055,0.00,VWS V14.00,2013-03-03 10:26:00,
2013-03-03 05:31:00,25.0,17.6,29.64,WNW,302,13.0,13.0,73,0.00,,OVC095,0.00,VWS V14.00,2013-03-03 10:31:00,
2013-03-03 05:36:00,25.0,17.6,29.64,NW,307,6.0,8.0,73,0.00,,OVC095,0.00,VWS V14.00,2013-03-03 10:36:00,
2013-03-03 05:41:00,25.0,17.6,29.64,NNW,346,1.0,12.0,73,0.00,,OVC095,0.00,VWS V14.00,2013-03-03 10:41:00,
2013-03-03 05:46:00,25.0,17.6,29.64,NW,313,6.0,6.0,73,0.00,,OVC095,0.00,VWS V14.00,2013-03-03 10:46:00,
2013-03-03 05:51:00,25.0,17.6,29.64,NW,308,2.0,5.0,73,0.00,,OVC095,0.00,VWS V14.00,2013-03-03 10:51:00,
2013-03-03 05:56:00,25.0,17.6,29.64,NW,305,7.0,7.0,73,0.00,,OVC095,0.00,VWS V14.00,2013-03-03 10:56:00,
2013-03-03 06:01:00,24.8,17.4,29.64,NW,306,10.0,10.0,73,0.00,,OVC095,0.00,VWS V14.00,2013-03-03 11:01:00,
2013-03-03 06:06:00,24.8,17.1,29.64,NW,307,13.0,13.0,72,0.00,,OVC095,0.00,VWS V14.00,2013-03-03 11:06:00,
2013-03-03 06:11:00,24.8,17.1,29.64,NW,321,7.0,8.0,72,0.00,,OVC095,0.00,VWS V14.00,2013-03-03 11:11:00,
2013-03-03 06:16:00,24.8,17.1,29.64,WNW,302,3.0,6.0,72,0.00,,OVC095,0.00,VWS V14.00,2013-03-03 11:16:00,
2013-03-03 06:21:00,24.8,16.8,29.64,WNW,298,5.0,6.0,71,0.00,,OVC095,0.00,VWS V14.00,2013-03-03 11:21:00,
2013-03-03 06:26:00,24.8,16.8,29.64,WNW,299,7.0,7.0,71,0.00,,OVC095,0.00,VWS V14.00,2013-03-03 11:26:00,
2013-03-03 06:31:00,24.8,16.8,29.64,NW,309,5.0,5.0,71,0.00,,OVC100,0.00,VWS V14.00,2013-03-03 11:31:00,
2013-03-03 06:36:00,24.8,16.4,29.64,NW,305,6.0,6.0,70,0.00,,OVC100,0.00,VWS V14.00,2013-03-03 11:36:00,
2013-03-03 06:41:00,24.8,16.4,29.64,WNW,288,6.0,12.0,70,0.00,,OVC100,0.00,VWS V14.00,2013-03-03 11:41:00,
2013-03-03 06:46:00,24.8,16.1,29.64,NW,306,9.0,13.0,69,0.00,,OVC100,0.00,VWS V14.00,2013-03-03 11:46:00,
2013-03-03 06:51:00,24.8,15.8,29.64,NW,313,10.0,10.0,68,0.00,,OVC100,0.00,VWS V14.00,2013-03-03 11:51:00,
2013-03-03 06:56:00,24.8,15.4,29.64,WNW,301,4.0,11.0,67,0.00,,OVC100,0.00,VWS V14.00,2013-03-03 11:56:00,
2013-03-03 07:01:00,24.8,15.4,29.65,NW,313,5.0,7.0,67,0.00,,OVC100,0.00,VWS V14.00,2013-03-03 12:01:00,
2013-03-03 07:06:00,24.8,15.1,29.65,WNW,287,5.0,10.0,66,0.00,,OVC100,0.00,VWS V14.00,2013-03-03 12:06:00,
2013-03-03 07:11:00,24.8,14.7,29.65,WNW,289,11.0,13.0,65,0.00,,OVC100,0.00,VWS V14.00,2013-03-03 12:11:00,
2013-03-03 07:16:00,25.0,14.9,29.65,NW,315,4.0,6.0,65,0.00,,OVC100,0.00,VWS V14.00,2013-03-03 12:16:00,
2013-03-03 07:21:00,25.0,14.9,29.65,WNW,296,10.0,15.0,65,0.00,,OVC100,0.00,VWS V14.00,2013-03-03 12:21:00,
2013-03-03 07:26:00,25.0,14.9,29.65,WNW,303,6.0,12.0,65,0.00,,OVC100,0.00,VWS V14.00,2013-03-03 12:26:00,
2013-03-03 07:32:00,25.1,15.0,29.65,WNW,284,7.0,9.0,65,0.00,,OVC065,0.00,VWS V14.00,2013-03-03 12:32:00,
2013-03-03 07:37:00,25.3,15.2,29.65,WNW,290,4.0,7.0,65,0.00,,OVC065,0.00,VWS V14.00,2013-03-03 12:37:00,
2013-03-03 07:42:00,25.3,14.8,29.65,WNW,302,5.0,7.0,64,0.00,,OVC065,0.00,VWS V14.00,2013-03-03 12:42:00,
2013-03-03 07:47:00,25.3,14.8,29.65,West,281,6.0,7.0,64,0.00,,OVC065,0.00,VWS V14.00,2013-03-03 12:47:00,
2013-03-03 07:52:00,25.3,14.8,29.65,NW,304,4.0,5.0,64,0.00,,OVC065,0.00,VWS V14.00,2013-03-03 12:52:00,
2013-03-03 07:57:00,25.4,14.9,29.65,NW,315,5.0,5.0,64,0.00,,OVC065,0.00,VWS V14.00,2013-03-03 12:57:00,
2013-03-03 08:02:00,25.4,14.9,29.65,NNW,338,1.0,6.0,64,0.00,,OVC065,0.00,VWS V14.00,2013-03-03 13:02:00,
2013-03-03 08:07:00,25.7,15.2,29.65,North,5,3.0,7.0,64,0.00,,OVC065,0.00,VWS V14.00,2013-03-03 13:07:00,
2013-03-03 08:12:00,25.7,14.9,29.65,WNW,298,9.0,15.0,63,0.00,,OVC065,0.00,VWS V14.00,2013-03-03 13:12:00,
2013-03-03 08:17:00,25.8,15.0,29.65,NW,325,3.0,6.0,63,0.00,,OVC065,0.00,VWS V14.00,2013-03-03 13:17:00,
2013-03-03 08:22:00,25.8,14.6,29.65,WNW,298,10.0,12.0,62,0.00,,OVC065,0.00,VWS V14.00,2013-03-03 13:22:00,
2013-03-03 08:27:00,25.7,14.5,29.65,West,272,3.0,12.0,62,0.00,,OVC065,0.00,VWS V14.00,2013-03-03 13:27:00,
2013-03-03 08:32:00,25.7,14.1,29.65,NE,40,5.0,14.0,61,0.00,,OVC065,0.00,VWS V14.00,2013-03-03 13:32:00,
2013-03-03 08:37:00,25.7,14.1,29.65,WNW,297,9.0,11.0,61,0.00,,OVC065,0.00,VWS V14.00,2013-03-03 13:37:00,
2013-03-03 08:42:00,25.8,14.2,29.65,WNW,299,5.0,6.0,61,0.00,,OVC065,0.00,VWS V14.00,2013-03-03 13:42:00,
2013-03-03 08:47:00,26.0,14.4,29.65,WNW,301,4.0,11.0,61,0.00,,OVC065,0.00,VWS V14.00,2013-03-03 13:47:00,
2013-03-03 08:52:00,26.1,14.1,29.65,WNW,298,8.0,18.0,60,0.00,,OVC065,0.00,VWS V14.00,2013-03-03 13:52:00,
2013-03-03 08:57:00,26.1,14.1,29.65,West,259,8.0,10.0,60,0.00,,OVC065,0.00,VWS V14.00,2013-03-03 13:57:00,
2013-03-03 09:02:00,26.0,14.0,29.65,West,279,4.0,13.0,60,0.00,,OVC065,0.00,VWS V14.00,2013-03-03 14:02:00,
2013-03-03 09:07:00,26.1,14.1,29.65,West,275,5.0,12.0,60,0.00,,OVC065,0.00,VWS V14.00,2013-03-03 14:07:00,
2013-03-03 09:12:00,26.1,14.1,29.65,North,5,12.0,12.0,60,0.00,,OVC065,0.00,VWS V14.00,2013-03-03 14:12:00,
2013-03-03 09:17:00,26.3,14.3,29.64,NNE,28,6.0,7.0,60,0.00,,OVC065,0.00,VWS V14.00,2013-03-03 14:17:00,
2013-03-03 09:22:00,26.6,14.6,29.64,North,11,4.0,7.0,60,0.00,,OVC065,0.00,VWS V14.00,2013-03-03 14:22:00,
2013-03-03 09:27:00,27.0,15.0,29.64,NW,314,6.0,7.0,60,0.00,,OVC065,0.00,VWS V14.00,2013-03-03 14:27:00,
2013-03-03 09:32:00,27.3,15.3,29.64,WNW,286,8.0,12.0,60,0.00,,OVC070,0.00,VWS V14.00,2013-03-03 14:32:00,
2013-03-03 09:37:00,27.8,15.4,29.64,NW,304,5.0,11.0,59,0.00,,OVC070,0.00,VWS V14.00,2013-03-03 14:37:00,
2013-03-03 09:42:00,28.5,15.6,29.64,NW,305,5.0,11.0,58,0.00,,OVC070,0.00,VWS V14.00,2013-03-03 14:42:00,
2013-03-03 09:47:00,28.7,15.0,29.63,WNW,286,16.0,16.0,56,0.00,,OVC070,0.00,VWS V14.00,2013-03-03 14:47:00,
2013-03-03 09:52:00,28.7,15.0,29.63,NW,316,9.0,15.0,56,0.00,,OVC070,0.00,VWS V14.00,2013-03-03 14:52:00,
2013-03-03 09:57:00,29.3,16.0,29.63,NW,313,7.0,7.0,57,0.00,,OVC070,0.00,VWS V14.00,2013-03-03 14:57:00,
2013-03-03 10:02:00,29.4,15.2,29.62,NW,309,12.0,12.0,55,0.00,,OVC070,0.00,VWS V14.00,2013-03-03 15:02:00,
2013-03-03 10:07:00,29.5,15.8,29.62,WNW,290,11.0,14.0,56,0.00,,OVC070,0.00,VWS V14.00,2013-03-03 15:07:00,
2013-03-03 10:12:00,29.1,15.4,29.62,NW,307,6.0,12.0,56,0.00,,OVC070,0.00,VWS V14.00,2013-03-03 15:12:00,
2013-03-03 10:17:00,28.8,15.1,29.63,WNW,290,5.0,11.0,56,0.00,,OVC070,0.00,VWS V14.00,2013-03-03 15:17:00,
2013-03-03 10:22:00,28.8,15.1,29.63,NW,304,10.0,13.0,56,0.00,,OVC070,0.00,VWS V14.00,2013-03-03 15:22:00,
2013-03-03 10:27:00,29.3,16.0,29.63,West,280,4.0,13.0,57,0.00,,OVC070,0.00,VWS V14.00,2013-03-03 15:27:00,
2013-03-03 10:32:00,29.4,15.2,29.63,WNW,294,7.0,11.0,55,0.00,,BKN110,0.00,VWS V14.00,2013-03-03 15:32:00,
2013-03-03 10:37:00,29.5,15.8,29.63,WNW,300,3.0,8.0,56,0.00,,BKN110,0.00,VWS V14.00,2013-03-03 15:37:00,
2013-03-03 10:42:00,29.4,15.7,29.63,NNW,333,2.0,7.0,56,0.00,,BKN110,0.00,VWS V14.00,2013-03-03 15:42:00,
2013-03-03 10:47:00,29.3,15.1,29.63,West,275,5.0,7.0,55,0.00,,BKN110,0.00,VWS V14.00,2013-03-03 15:47:00,
2013-03-03 10:52:00,29.1,15.8,29.63,WNW,299,2.0,4.0,57,0.00,,BKN110,0.00,VWS V14.00,2013-03-03 15:52:00,
2013-03-03 10:57:00,30.0,16.2,29.63,WNW,284,4.0,13.0,56,0.00,,BKN110,0.00,VWS V14.00,2013-03-03 15:57:00,
2013-03-03 11:02:00,29.7,15.5,29.62,NW,315,6.0,14.0,55,0.00,,BKN110,0.00,VWS V14.00,2013-03-03 16:02:00,
2013-03-03 11:07:00,30.0,16.2,29.62,WNW,288,7.0,13.0,56,0.00,,BKN110,0.00,VWS V14.00,2013-03-03 16:07:00,
2013-03-03 11:12:00,29.8,16.0,29.62,NW,313,7.0,9.0,56,0.00,,BKN110,0.00,VWS V14.00,2013-03-03 16:12:00,
2013-03-03 11:17:00,30.0,16.2,29.62,NW,322,13.0,15.0,56,0.00,,BKN110,0.00,VWS V14.00,2013-03-03 16:17:00,
2013-03-03 11:22:00,29.4,16.1,29.62,WNW,297,6.0,12.0,57,0.00,,BKN110,0.00,VWS V14.00,2013-03-03 16:22:00,
2013-03-03 11:27:00,29.4,16.5,29.62,North,355,4.0,13.0,58,0.00,,BKN110,0.00,VWS V14.00,2013-03-03 16:27:00,
2013-03-03 11:32:00,29.4,16.5,29.62,WNW,299,5.0,10.0,58,0.00,,OVC100,0.00,VWS V14.00,2013-03-03 16:32:00,
2013-03-03 11:38:00,29.4,16.5,29.62,WNW,299,6.0,12.0,58,0.00,,OVC100,0.00,VWS V14.00,2013-03-03 16:38:00,
2013-03-03 11:43:00,29.4,16.9,29.62,NW,315,11.0,13.0,59,0.00,,OVC100,0.00,VWS V14.00,2013-03-03 16:43:00,
2013-03-03 11:48:00,29.4,16.9,29.62,NW,304,11.0,11.0,59,0.00,,OVC100,0.00,VWS V14.00,2013-03-03 16:48:00,
2013-03-03 11:53:00,29.7,17.1,29.62,NW,310,4.0,6.0,59,0.00,,OVC100,0.00,VWS V14.00,2013-03-03 16:53:00,
2013-03-03 11:58:00,30.1,17.1,29.62,NW,313,3.0,10.0,58,0.00,,OVC100,0.00,VWS V14.00,2013-03-03 16:58:00,
2013-03-03 12:03:00,30.3,17.3,29.61,WNW,291,6.0,6.0,58,0.00,,OVC100,0.00,VWS V14.00,2013-03-03 17:03:00,
2013-03-03 12:08:00,30.4,17.0,29.61,NNW,328,2.0,7.0,57,0.00,,OVC100,0.00,VWS V14.00,2013-03-03 17:08:00,
2013-03-03 12:13:00,30.6,17.6,29.61,WNW,287,10.0,10.0,58,0.00,,OVC100,0.00,VWS V14.00,2013-03-03 17:13:00,
2013-03-03 12:18:00,30.6,17.6,29.61,NW,311,10.0,11.0,58,0.00,,OVC100,0.00,VWS V14.00,2013-03-03 17:18:00,
2013-03-03 12:23:00,30.6,17.6,29.61,NW,317,11.0,11.0,58,0.00,,OVC100,0.00,VWS V14.00,2013-03-03 17:23:00,
2013-03-03 12:28:00,30.7,17.7,29.61,NNE,23,4.0,10.0,58,0.00,,OVC100,0.00,VWS V14.00,2013-03-03 17:28:00,
2013-03-03 12:33:00,31.0,18.0,29.60,NW,311,4.0,8.0,58,0.00,,OVC043,0.00,VWS V14.00,2013-03-03 17:33:00,
2013-03-03 12:38:00,31.2,18.5,29.60,West,273,10.0,10.0,59,0.00,,OVC043,0.00,VWS V14.00,2013-03-03 17:38:00,
2013-03-03 12:43:00,31.0,18.0,29.60,WNW,295,6.0,11.0,58,0.00,,OVC043,0.00,VWS V14.00,2013-03-03 17:43:00,
2013-03-03 12:48:00,31.0,18.4,29.60,WNW,301,0.0,14.0,59,0.00,,OVC043,0.00,VWS V14.00,2013-03-03 17:48:00,
2013-03-03 12:53:00,31.3,18.6,29.60,North,350,4.0,11.0,59,0.00,,OVC043,0.00,VWS V14.00,2013-03-03 17:53:00,
2013-03-03 12:58:00,31.0,18.8,29.60,NNE,16,11.0,12.0,60,0.00,,OVC043,0.00,VWS V14.00,2013-03-03 17:58:00,
2013-03-03 13:03:00,30.7,18.9,29.60,WNW,300,6.0,9.0,61,0.00,,OVC043,0.00,VWS V14.00,2013-03-03 18:03:00,
2013-03-03 13:08:00,30.7,19.2,29.60,WNW,292,4.0,9.0,62,0.00,,OVC043,0.00,VWS V14.00,2013-03-03 18:08:00,
2013-03-03 13:13:00,30.3,19.2,29.60,NW,317,7.0,13.0,63,0.00,,OVC043,0.00,VWS V14.00,2013-03-03 18:13:00,
2013-03-03 13:18:00,29.8,19.5,29.59,NW,305,4.0,11.0,65,0.00,,OVC043,0.00,VWS V14.00,2013-03-03 18:18:00,
2013-03-03 13:23:00,29.5,19.6,29.59,WNW,286,7.0,10.0,66,0.00,,OVC043,0.00,VWS V14.00,2013-03-03 18:23:00,
2013-03-03 13:28:00,29.4,19.8,29.59,NW,305,12.0,12.0,67,0.00,,OVC043,0.00,VWS V14.00,2013-03-03 18:28:00,
2013-03-03 13:33:00,29.0,20.1,29.60,WNW,285,5.0,11.0,69,0.00,,OVC043,0.00,VWS V14.00,2013-03-03 18:33:00,
2013-03-03 13:38:00,28.8,20.6,29.60,WNW,292,16.0,16.0,71,0.00,,OVC043,0.00,VWS V14.00,2013-03-03 18:38:00,
2013-03-03 13:43:00,28.5,21.0,29.60,WNW,287,6.0,10.0,73,0.00,,OVC043,0.00,VWS V14.00,2013-03-03 18:43:00,
2013-03-03 13:48:00,28.5,21.6,29.59,NW,304,5.0,7.0,75,0.00,,OVC043,0.00,VWS V14.00,2013-03-03 18:48:00,
2013-03-03 13:53:00,28.8,22.8,29.59,WNW,290,9.0,11.0,78,0.00,,OVC043,0.00,VWS V14.00,2013-03-03 18:53:00,
2013-03-03 13:58:00,28.8,22.8,29.59,WNW,298,7.0,12.0,78,0.00,,OVC043,0.00,VWS V14.00,2013-03-03 18:58:00,
2013-03-03 14:03:00,28.7,22.7,29.60,WNW,282,3.0,11.0,78,0.00,,OVC043,0.00,VWS V14.00,2013-03-03 19:03:00,
2013-03-03 14:08:00,28.8,23.1,29.60,WNW,298,7.0,12.0,79,0.00,,OVC043,0.00,VWS V14.00,2013-03-03 19:08:00,
2013-03-03 14:13:00,28.5,22.8,29.60,WNW,283,7.0,7.0,79,0.00,,OVC043,0.00,VWS V14.00,2013-03-03 19:13:00,
2013-03-03 14:18:00,28.5,23.1,29.59,WNW,292,4.0,12.0,80,0.00,,OVC043,0.00,VWS V14.00,2013-03-03 19:18:00,
2013-03-03 14:23:00,28.4,23.3,29.59,NW,317,4.0,7.0,81,0.00,,OVC043,0.00,VWS V14.00,2013-03-03 19:23:00,
2013-03-03 14:28:00,28.4,23.6,29.59,WNW,302,3.0,7.0,82,0.00,,OVC043,0.00,VWS V14.00,2013-03-03 19:28:00,
2013-03-03 14:33:00,28.4,23.6,29.59,NNW,328,9.0,9.0,82,0.00,,OVC048,0.00,VWS V14.00,2013-03-03 19:33:00,
2013-03-03 14:38:00,28.2,23.4,29.59,WNW,284,9.0,13.0,82,0.00,,OVC048,0.00,VWS V14.00,2013-03-03 19:38:00,
2013-03-03 14:43:00,28.4,23.6,29.59,WNW,303,7.0,7.0,82,0.00,,OVC048,0.00,VWS V14.00,2013-03-03 19:43:00,
2013-03-03 14:48:00,28.7,23.6,29.59,NW,311,6.0,10.0,81,0.00,,OVC048,0.00,VWS V14.00,2013-03-03 19:48:00,
2013-03-03 14:53:00,28.7,23.3,29.59,WNW,289,9.0,10.0,80,0.00,,OVC048,0.00,VWS V14.00,2013-03-03 19:53:00,
2013-03-03 14:58:00,28.8,23.1,29.59,WNW,296,6.0,12.0,79,0.00,,OVC048,0.00,VWS V14.00,2013-03-03 19:58:00,
2013-03-03 15:03:00,29.0,23.3,29.59,West,276,6.0,17.0,79,0.00,,,0.00,VWS V14.00,2013-03-03 20:03:00,
2013-03-03 15:08:00,29.0,23.3,29.59,WNW,298,1.0,12.0,79,0.00,,,0.00,VWS V14.00,2013-03-03 20:08:00,
2013-03-03 15:13:00,29.0,23.0,29.59,NW,305,5.0,11.0,78,0.00,,,0.00,VWS V14.00,2013-03-03 20:13:00,
2013-03-03 15:18:00,29.0,23.0,29.59,North,351,2.0,8.0,78,0.00,,OVC048,0.00,VWS V14.00,2013-03-03 20:18:00,
2013-03-03 15:23:00,29.0,23.0,29.59,WNW,290,14.0,15.0,78,0.00,,OVC048,0.00,VWS V14.00,2013-03-03 20:23:00,
2013-03-03 15:28:00,29.1,23.1,29.59,NW,316,8.0,12.0,78,0.00,,OVC048,0.00,VWS V14.00,2013-03-03 20:28:00,
2013-03-03 15:33:00,29.3,23.0,29.59,WNW,299,14.0,14.0,77,0.00,,,0.00,VWS V14.00,2013-03-03 20:33:00,
2013-03-03 15:38:00,29.3,22.7,29.59,WNW,302,9.0,15.0,76,0.00,,,0.00,VWS V14.00,2013-03-03 20:38:00,
2013-03-03 15:43:00,29.3,23.0,29.59,WNW,301,5.0,11.0,77,0.00,,,0.00,VWS V14.00,2013-03-03 20:43:00,
2013-03-03 15:48:00,29.4,23.1,29.59,WNW,286,12.0,12.0,77,0.00,,,0.00,VWS V14.00,2013-03-03 20:48:00,
2013-03-03 15:53:00,29.7,23.4,29.59,NNW,333,6.0,6.0,77,0.00,,,0.00,VWS V14.00,2013-03-03 20:53:00,
2013-03-03 15:58:00,29.8,22.9,29.59,WNW,292,11.0,14.0,75,0.00,,,0.00,VWS V14.00,2013-03-03 20:58:00,
2013-03-03 16:03:00,29.8,22.9,29.59,NW,322,5.0,12.0,75,0.00,,OVC055,0.00,VWS V14.00,2013-03-03 21:03:00,
2013-03-03 16:08:00,29.8,22.9,29.59,WNW,282,2.0,10.0,75,0.00,,OVC055,0.00,VWS V14.00,2013-03-03 21:08:00,
2013-03-03 16:13:00,29.7,22.8,29.59,WNW,285,13.0,13.0,75,0.00,,OVC055,0.00,VWS V14.00,2013-03-03 21:13:00,
2013-03-03 16:18:00,29.5,22.9,29.60,West,281,4.0,5.0,76,0.00,,,0.00,VWS V14.00,2013-03-03 21:18:00,
2013-03-03 16:24:00,29.5,23.2,29.60,WNW,283,5.0,6.0,77,0.00,,,0.00,VWS V14.00,2013-03-03 21:24:00,
2013-03-03 16:28:00,29.4,23.4,29.60,WNW,282,6.0,11.0,78,0.00,,,0.00,VWS V14.00,2013-03-03 21:28:00,
2013-03-03 16:33:00,29.3,23.3,29.60,WNW,287,6.0,6.0,78,0.00,,OVC065,0.00,VWS V14.00,2013-03-03 21:33:00,
2013-03-03 16:39:00,29.1,23.4,29.60,WNW,303,10.0,12.0,79,0.00,,OVC065,0.00,VWS V14.00,2013-03-03 21:39:00,
2013-03-03 16:44:00,29.0,23.3,29.60,West,277,3.0,11.0,79,0.00,,OVC065,0.00,VWS V14.00,2013-03-03 21:44:00,
2013-03-03 16:49:00,29.0,23.3,29.60,WNW,292,9.0,9.0,79,0.00,,OVC060,0.00,VWS V14.00,2013-03-03 21:49:00,
2013-03-03 16:54:00,29.0,23.6,29.60,WNW,286,5.0,11.0,80,0.00,,OVC060,0.00,VWS V14.00,2013-03-03 21:54:00,
2013-03-03 16:59:00,29.0,23.6,29.60,NW,305,6.0,7.0,80,0.00,,OVC060,0.00,VWS V14.00,2013-03-03 21:59:00,
2013-03-03 17:04:00,29.0,23.6,29.60,WNW,302,5.0,7.0,80,0.00,,OVC060,0.00,VWS V14.00,2013-03-03 22:04:00,
2013-03-03 17:09:00,29.0,23.6,29.60,WNW,288,4.0,12.0,80,0.00,,OVC060,0.00,VWS V14.00,2013-03-03 22:09:00,
2013-03-03 17:14:00,29.0,23.6,29.60,SW,234,2.0,7.0,80,0.00,,OVC060,0.00,VWS V14.00,2013-03-03 22:14:00,
2013-03-03 17:19:00,29.0,23.6,29.60,NW,309,5.0,14.0,80,0.00,,OVC065,0.00,VWS V14.00,2013-03-03 22:19:00,
2013-03-03 17:24:00,28.8,23.4,29.60,WNW,300,6.0,11.0,80,0.00,,OVC065,0.00,VWS V14.00,2013-03-03 22:24:00,
2013-03-03 17:29:00,28.8,23.4,29.60,West,277,4.0,6.0,80,0.00,,OVC065,0.00,VWS V14.00,2013-03-03 22:29:00,
2013-03-03 17:34:00,28.8,23.4,29.61,NW,312,5.0,11.0,80,0.00,,OVC047,0.00,VWS V14.00,2013-03-03 22:34:00,
2013-03-03 17:39:00,28.8,23.4,29.61,NW,314,4.0,11.0,80,0.00,,OVC047,0.00,VWS V14.00,2013-03-03 22:39:00,
2013-03-03 17:44:00,28.8,23.4,29.61,WNW,288,11.0,13.0,80,0.00,,OVC047,0.00,VWS V14.00,2013-03-03 22:44:00,
2013-03-03 17:49:00,28.7,23.3,29.61,NW,312,10.0,11.0,80,0.00,,OVC049,0.00,VWS V14.00,2013-03-03 22:49:00,
2013-03-03 17:54:00,28.7,23.3,29.61,WNW,285,5.0,5.0,80,0.00,,OVC049,0.00,VWS V14.00,2013-03-03 22:54:00,
2013-03-03 17:59:00,28.8,23.4,29.61,WNW,297,6.0,8.0,80,0.00,,OVC049,0.00,VWS V14.00,2013-03-03 22:59:00,
2013-03-03 18:04:00,28.7,23.3,29.61,NNW,333,6.0,9.0,80,0.00,,OVC049,0.00,VWS V14.00,2013-03-03 23:04:00,
2013-03-03 18:09:00,28.7,23.3,29.61,WNW,300,5.0,10.0,80,0.00,,OVC049,0.00,VWS V14.00,2013-03-03 23:09:00,
2013-03-03 18:14:00,28.7,23.3,29.61,NW,309,3.0,6.0,80,0.00,,OVC049,0.00,VWS V14.00,2013-03-03 23:14:00,
2013-03-03 18:19:00,28.7,23.3,29.61,WNW,295,5.0,8.0,80,0.00,,OVC047,0.00,VWS V14.00,2013-03-03 23:19:00,
2013-03-03 18:24:00,28.7,23.3,29.61,NW,307,15.0,15.0,80,0.00,,OVC047,0.00,VWS V14.00,2013-03-03 23:24:00,
2013-03-03 18:29:00,28.7,23.3,29.61,WNW,299,7.0,12.0,80,0.00,,OVC047,0.00,VWS V14.00,2013-03-03 23:29:00,
2013-03-03 18:34:00,28.7,23.3,29.61,WNW,302,3.0,9.0,80,0.00,,OVC055,0.00,VWS V14.00,2013-03-03 23:34:00,
2013-03-03 18:39:00,28.7,23.0,29.61,WNW,303,5.0,8.0,79,0.00,,OVC055,0.00,VWS V14.00,2013-03-03 23:39:00,
2013-03-03 18:44:00,28.7,23.0,29.61,NW,311,1.0,7.0,79,0.00,,OVC055,0.00,VWS V14.00,2013-03-03 23:44:00,
2013-03-03 18:49:00,28.7,23.0,29.62,WNW,297,3.0,6.0,79,0.00,,OVC055,0.00,VWS V14.00,2013-03-03 23:49:00,
2013-03-03 18:54:00,28.7,23.0,29.62,WSW,258,5.0,11.0,79,0.00,,OVC055,0.00,VWS V14.00,2013-03-03 23:54:00,
2013-03-03 18:59:00,28.7,22.7,29.62,WNW,302,11.0,15.0,78,0.00,,OVC055,0.00,VWS V14.00,2013-03-03 23:59:00,
2013-03-03 19:04:00,28.5,22.5,29.62,WNW,289,9.0,13.0,78,0.00,,OVC055,0.00,VWS V14.00,2013-03-04 00:04:00,
2013-03-03 19:09:00,28.5,22.2,29.62,WNW,303,6.0,6.0,77,0.00,,OVC055,0.00,VWS V14.00,2013-03-04 00:09:00,
2013-03-03 19:14:00,28.5,22.2,29.62,WNW,299,4.0,9.0,77,0.00,,OVC055,0.00,VWS V14.00,2013-03-04 00:14:00,
2013-03-03 19:19:00,28.5,21.9,29.63,NW,306,4.0,10.0,76,0.00,,OVC060,0.00,VWS V14.00,2013-03-04 00:19:00,
2013-03-03 19:24:00,28.5,21.9,29.63,NW,309,5.0,13.0,76,0.00,,OVC060,0.00,VWS V14.00,2013-03-04 00:24:00,
2013-03-03 19:29:00,28.5,21.6,29.63,WNW,292,6.0,6.0,75,0.00,,OVC060,0.00,VWS V14.00,2013-03-04 00:29:00,
2013-03-03 19:34:00,28.5,21.6,29.63,WNW,302,6.0,10.0,75,0.00,,OVC060,0.00,VWS V14.00,2013-03-04 00:34:00,
2013-03-03 19:39:00,28.5,21.6,29.63,WNW,298,5.0,7.0,75,0.00,,OVC060,0.00,VWS V14.00,2013-03-04 00:39:00,
2013-03-03 19:44:00,28.4,21.2,29.63,NW,309,4.0,13.0,74,0.00,,OVC060,0.00,VWS V14.00,2013-03-04 00:44:00,
2013-03-03 19:49:00,28.4,21.2,29.63,WNW,303,4.0,5.0,74,0.00,,OVC060,0.00,VWS V14.00,2013-03-04 00:49:00,
2013-03-03 19:54:00,28.4,20.9,29.63,NW,313,5.0,7.0,73,0.00,,OVC060,0.00,VWS V14.00,2013-03-04 00:54:00,
2013-03-03 19:59:00,28.2,20.0,29.63,NW,306,4.0,14.0,71,0.00,,OVC060,0.00,VWS V14.00,2013-03-04 00:59:00,
2013-03-03 20:04:00,28.2,19.7,29.64,NW,310,6.0,10.0,70,0.00,,OVC060,0.00,VWS V14.00,2013-03-04 01:04:00,
2013-03-03 20:09:00,28.4,19.5,29.64,NW,306,3.0,7.0,69,0.00,,OVC060,0.00,VWS V14.00,2013-03-04 01:09:00,
2013-03-03 20:14:00,28.4,19.2,29.64,NW,315,9.0,13.0,68,0.00,,OVC060,0.00,VWS V14.00,2013-03-04 01:14:00,
2013-03-03 20:19:00,28.4,18.9,29.65,NW,309,6.0,10.0,67,0.00,,OVC060,0.00,VWS V14.00,2013-03-04 01:19:00,
2013-03-03 20:24:00,28.4,18.9,29.65,NW,317,4.0,6.0,67,0.00,,OVC060,0.00,VWS V14.00,2013-03-04 01:24:00,
2013-03-03 20:29:00,28.4,18.9,29.65,NW,317,5.0,9.0,67,0.00,,OVC060,0.00,VWS V14.00,2013-03-04 01:29:00,
2013-03-03 20:34:00,28.4,18.5,29.65,WNW,293,3.0,6.0,66,0.00,,BKN060,0.00,VWS V14.00,2013-03-04 01:34:00,
2013-03-03 20:39:00,28.4,18.5,29.65,NW,304,15.0,16.0,66,0.00,,BKN060,0.00,VWS V14.00,2013-03-04 01:39:00,
2013-03-03 20:44:00,28.2,18.0,29.65,WNW,282,7.0,13.0,65,0.00,,BKN060,0.00,VWS V14.00,2013-03-04 01:44:00,
2013-03-03 20:49:00,28.2,18.0,29.65,West,281,5.0,12.0,65,0.00,,BKN060,0.00,VWS V14.00,2013-03-04 01:49:00,
2013-03-03 20:54:00,28.2,18.0,29.65,WNW,303,10.0,10.0,65,0.00,,BKN060,0.00,VWS V14.00,2013-03-04 01:54:00,
2013-03-03 21:00:00,28.1,17.9,29.65,WNW,298,11.0,15.0,65,0.00,,BKN060,0.00,VWS V14.00,2013-03-04 02:00:00,
2013-03-03 21:05:00,27.9,17.3,29.65,North,355,3.0,14.0,64,0.00,,BKN060,0.00,VWS V14.00,2013-03-04 02:05:00,
2013-03-03 21:10:00,27.9,17.3,29.65,WNW,299,5.0,11.0,64,0.00,,BKN060,0.00,VWS V14.00,2013-03-04 02:10:00,
2013-03-03 21:15:00,27.9,17.3,29.65,WNW,284,10.0,15.0,64,0.00,,BKN060,0.00,VWS V14.00,2013-03-04 02:15:00,
2013-03-03 21:20:00,27.8,17.2,29.65,NW,315,11.0,12.0,64,0.00,,BKN060,0.00,VWS V14.00,2013-03-04 02:20:00,
2013-03-03 21:25:00,27.8,17.2,29.65,NW,304,7.0,11.0,64,0.00,,BKN060,0.00,VWS V14.00,2013-03-04 02:25:00,
2013-03-03 21:30:00,27.8,17.6,29.65,NW,325,11.0,12.0,65,0.00,,BKN060,0.00,VWS V14.00,2013-03-04 02:30:00,
2013-03-03 21:35:00,27.6,17.4,29.65,NW,310,8.0,12.0,65,0.00,,BKN055,0.00,VWS V14.00,2013-03-04 02:35:00,
2013-03-03 21:40:00,27.6,17.4,29.65,WNW,294,5.0,12.0,65,0.00,,BKN055,0.00,VWS V14.00,2013-03-04 02:40:00,
2013-03-03 21:45:00,27.6,17.4,29.65,WNW,288,8.0,16.0,65,0.00,,BKN055,0.00,VWS V14.00,2013-03-04 02:45:00,
2013-03-03 21:50:00,27.6,17.4,29.65,NW,325,6.0,16.0,65,0.00,,BKN055,0.00,VWS V14.00,2013-03-04 02:50:00,
2013-03-03 21:55:00,27.5,17.3,29.65,WNW,296,13.0,16.0,65,0.00,,BKN055,0.00,VWS V14.00,2013-03-04 02:55:00,
2013-03-03 22:00:00,27.5,17.3,29.65,NW,315,10.0,13.0,65,0.00,,BKN055,0.00,VWS V14.00,2013-03-04 03:00:00,
2013-03-03 22:05:00,27.5,17.3,29.65,NW,321,11.0,23.0,65,0.00,,BKN055,0.00,VWS V14.00,2013-03-04 03:05:00,
2013-03-03 22:10:00,27.3,17.1,29.65,NW,304,11.0,19.0,65,0.00,,BKN055,0.00,VWS V14.00,2013-03-04 03:10:00,
2013-03-03 22:15:00,27.2,17.0,29.66,WNW,285,5.0,11.0,65,0.00,,BKN055,0.00,VWS V14.00,2013-03-04 03:15:00,
2013-03-03 22:20:00,27.2,17.0,29.66,WNW,284,4.0,14.0,65,0.00,,BKN055,0.00,VWS V14.00,2013-03-04 03:20:00,
2013-03-03 22:25:00,27.0,16.8,29.66,WNW,303,12.0,12.0,65,0.00,,BKN055,0.00,VWS V14.00,2013-03-04 03:25:00,
2013-03-03 22:30:00,27.0,16.8,29.66,WNW,286,14.0,16.0,65,0.00,,BKN055,0.00,VWS V14.00,2013-03-04 03:30:00,
2013-03-03 22:35:00,26.9,16.7,29.66,West,278,7.0,17.0,65,0.00,,OVC045,0.00,VWS V14.00,2013-03-04 03:35:00,
2013-03-03 22:40:00,26.7,16.5,29.66,WNW,287,11.0,15.0,65,0.00,,OVC045,0.00,VWS V14.00,2013-03-04 03:40:00,
2013-03-03 22:45:00,26.6,16.4,29.66,NW,315,4.0,12.0,65,0.00,,OVC045,0.00,VWS V14.00,2013-03-04 03:45:00,
2013-03-03 22:50:00,26.6,16.4,29.66,WNW,292,4.0,12.0,65,0.00,,OVC045,0.00,VWS V14.00,2013-03-04 03:50:00,
2013-03-03 22:55:00,26.4,16.2,29.66,WNW,302,6.0,12.0,65,0.00,,OVC045,0.00,VWS V14.00,2013-03-04 03:55:00,
2013-03-03 23:00:00,26.4,16.2,29.65,NW,313,5.0,7.0,65,0.00,,OVC045,0.00,VWS V14.00,2013-03-04 04:00:00,
2013-03-03 23:05:00,26.3,16.5,29.65,WNW,301,6.0,9.0,66,0.00,,OVC045,0.00,VWS V14.00,2013-03-04 04:05:00,
2013-03-03 23:10:00,26.3,16.5,29.65,WNW,296,7.0,7.0,66,0.00,,OVC045,0.00,VWS V14.00,2013-03-04 04:10:00,
2013-03-03 23:15:00,26.1,16.3,29.65,WNW,299,5.0,10.0,66,0.00,,OVC045,0.00,VWS V14.00,2013-03-04 04:15:00,
2013-03-03 23:20:00,26.1,16.3,29.65,WNW,282,8.0,11.0,66,0.00,,OVC045,0.00,VWS V14.00,2013-03-04 04:20:00,
2013-03-03 23:25:00,26.1,16.3,29.65,NW,318,7.0,15.0,66,0.00,,OVC045,0.00,VWS V14.00,2013-03-04 04:25:00,
2013-03-03 23:30:00,26.0,16.2,29.66,WNW,294,7.0,12.0,66,0.00,,OVC045,0.00,VWS V14.00,2013-03-04 04:30:00,
2013-03-03 23:35:00,26.0,16.2,29.66,WNW,288,4.0,6.0,66,0.00,,OVC049,0.00,VWS V14.00,2013-03-04 04:35:00,
2013-03-03 23:40:00,26.0,16.2,29.66,WNW,288,9.0,11.0,66,0.00,,OVC049,0.00,VWS V14.00,2013-03-04 04:40:00,
2013-03-03 23:45:00,26.0,16.2,29.66,NW,319,2.0,6.0,66,0.00,,OVC049,0.00,VWS V14.00,2013-03-04 04:45:00,
2013-03-03 23:50:00,25.8,16.0,29.66,NW,309,6.0,6.0,66,0.00,,OVC049,0.00,VWS V14.00,2013-03-04 04:50:00,
2013-03-03 23:55:00,25.8,16.0,29.66,WNW,301,3.0,8.0,66,0.00,,OVC049,0.00,VWS V14.00,2013-03-04 04:55:00,